Weather History for KJXN - November, 2012

Change the Weather History Date:

Thursday, November 29, 2012

  Actual Average Record
Temperature  
Mean Temperature 38 °F 34 °F  
Max Temperature 48 °F 41 °F 64 °F (1998)
Min Temperature 27 °F 27 °F 2 °F (1958)
Degree Days  
Heating Degree Days 27 31  
Month to date heating degree days 765 726  
Since 1 July heating degree days 1413 1374  
Cooling Degree Days 0 0  
Month to date cooling degree days 0 0  
Year to date cooling degree days 873 592  
Moisture  
Dew Point 25 °F    
Average Humidity 59    
Maximum Humidity 75    
Minimum Humidity 42    
Precipitation  
Precipitation 0.00 in 0.08 in 1.54 in (2011)
Month to date precipitation 0.43 2.52  
Year to date precipitation 23.30 29.55  
Sea Level Pressure  
Sea Level Pressure 30.25 in    
Wind  
Wind Speed 8 mph (SW)    
Max Wind Speed 18 mph    
Max Gust Speed 23 mph    
Visibility 10 miles    
Events      
T = Trace of Precipitation, MM = Missing Value Source: NWS Daily Summary

Daily Weather History Graph

Daily Weather History Graph

Search for Another Location

Airport or City:

Trip Planner

Search our weather history database for the weather conditions in past years. The results will help you decide how hot, cold, wet, or windy it might be!

Date:

Astronomy

Nov. 29, 2012 Rise Set
Actual Time 7:45 AM EST 5:07 PM EST
Civil Twilight 7:14 AM EST 5:38 PM EST
Nautical Twilight 6:39 AM EST 6:13 PM EST
Astronomical Twilight 6:05 AM EST 6:46 PM EST
Moon 6:09 PM EST (11/29) 8:31 AM EST (11/29)
Length of Visible Light 10h 23m
Length of Day
9h 21m
Full, 99% of the Moon is Illuminated
Nov 29
Full
Dec 6
Last Quarter
Dec 13
New
Dec 20
First Quarter
Dec 28
Full

Hourly Weather History & Observations

Time (EST) Temp. Windchill Dew Point Humidity Pressure Visibility Wind Dir Wind Speed Gust Speed Precip Events Conditions
1:56 AM 32.0 °F 23.6 °F 21.0 °F 64% 30.30 in 10.0 mi WSW 10.4 mph - N/A   Clear
2:56 AM 32.0 °F 24.2 °F 21.0 °F 64% 30.31 in 10.0 mi WSW 9.2 mph - N/A   Clear
3:56 AM 33.1 °F 26.9 °F 21.9 °F 64% 30.30 in 10.0 mi SW 6.9 mph - N/A   Clear
4:56 AM 33.1 °F 26.1 °F 23.0 °F 66% 30.30 in 10.0 mi SW 8.1 mph - N/A   Clear
5:56 AM 32.0 °F 26.4 °F 23.0 °F 69% 30.30 in 9.0 mi WSW 5.8 mph - N/A   Clear
6:56 AM 32.0 °F 25.6 °F 23.0 °F 69% - 9.0 mi WSW 6.9 mph - N/A   Clear
7:56 AM 33.1 °F 27.7 °F 24.1 °F 70% - 7.0 mi WSW 5.8 mph - N/A   Clear
8:56 AM 34.0 °F 26.0 °F 24.1 °F 67% - 8.0 mi SW 10.4 mph - N/A   Clear
9:56 AM 37.9 °F 30.5 °F 24.1 °F 57% 30.29 in 10.0 mi WSW 11.5 mph - N/A   Clear
10:56 AM 42.1 °F 35.7 °F 25.0 °F 51% 30.29 in 10.0 mi WSW 11.5 mph 18.4 mph N/A   Clear
11:56 AM 44.1 °F 37.4 °F 25.0 °F 47% 30.26 in 10.0 mi WSW 13.8 mph 19.6 mph N/A   Clear
12:56 PM 45.0 °F 38.2 °F 25.0 °F 46% 30.23 in 10.0 mi SW 15.0 mph - N/A   Clear
1:56 PM 48.0 °F - 26.1 °F 42% 30.21 in 10.0 mi SW 6.9 mph - N/A   Clear
2:56 PM 46.9 °F - 26.1 °F 44% 30.20 in 10.0 mi WSW 12.7 mph - N/A   Clear
3:56 PM 46.9 °F - 26.1 °F 44% 30.19 in 10.0 mi SSW 9.2 mph - N/A   Clear
4:56 PM 43.0 °F 39.5 °F 26.1 °F 51% 30.20 in 10.0 mi SSW 5.8 mph - N/A   Clear
5:56 PM 39.0 °F 34.0 °F 26.1 °F 60% 30.21 in 10.0 mi South 6.9 mph - N/A   Clear
6:56 PM 37.0 °F 32.4 °F 25.0 °F 62% 30.22 in 10.0 mi South 5.8 mph - N/A   Clear
7:56 PM 37.0 °F 32.4 °F 26.1 °F 65% 30.22 in 10.0 mi South 5.8 mph - N/A   Clear
8:56 PM 37.9 °F 35.5 °F 26.1 °F 62% 30.22 in 10.0 mi South 3.5 mph - N/A   Clear
9:56 PM 34.0 °F - 26.1 °F 73% 30.23 in 9.0 mi Calm Calm - N/A   Clear
10:56 PM 33.1 °F 28.7 °F 26.1 °F 75% 30.22 in 9.0 mi SE 4.6 mph - N/A   Mostly Cloudy
11:56 PM 36.0 °F - 27.0 °F 70% 30.22 in 9.0 mi Calm Calm - N/A   Overcast